Detroit Lakes, MN

10:53 PM CDT on March 27, 2017 (GMT -0500)
Detroit Lakes

Weather History for KDTL - January, 2014

Change the Weather History Date:

Friday, January 3, 2014

  Actual Average Record
Temperature  
Mean Temperature 10 °F -  
Max Temperature 26 °F 15 °F 40 °F (1944)
Min Temperature -5 °F -3 °F -33 °F (1947)
Degree Days  
Heating Degree Days 54    
Moisture  
Dew Point 9 °F    
Average Humidity 85    
Maximum Humidity 100    
Minimum Humidity 72    
Precipitation  
Precipitation 0.01 in - - ()
Sea Level Pressure  
Sea Level Pressure 29.55 in    
Wind  
Wind Speed 17 mph (South)    
Max Wind Speed 25 mph    
Max Gust Speed 29 mph    
Visibility 7 miles    
Events Snow    
Averages and records for this station are not official NWS values.
T = Trace of Precipitation, MM = Missing Value Source: NWS Daily Summary

Daily Weather History Graph

Daily Weather History Graph

Search for Another Location

Airport or City:

Trip Planner

Search our weather history database for the weather conditions in past years. The results will help you decide how hot, cold, wet, or windy it might be!

Date:

Astronomy

Jan. 03, 2014 Rise Set
Actual Time 8:08 AM CST 4:47 PM CST
Civil Twilight 7:33 AM CST 5:22 PM CST
Nautical Twilight 6:55 AM CST 6:01 PM CST
Astronomical Twilight 6:18 AM CST 6:38 PM CST
Moon 9:24 AM CST (1/3) 8:11 PM CST (1/3)
Length of Visible Light 9h 49m
Length of Day
8h 39m
Waxing Crescent, 8% of the Moon is Illuminated
Jan 3
Waxing Crescent
Jan 7
First Quarter
Jan 15
Full
Jan 23
Last Quarter
Jan 30
New

Hourly Weather History & Observations

Time (CST) Temp. Windchill Dew Point Humidity Pressure Visibility Wind Dir Wind Speed Gust Speed Precip Events Conditions
12:15 AM -5.8 °F -26.8 °F -11.2 °F 77% 30.10 in 10.0 mi South 15.0 mph - N/A   Clear
12:35 AM -5.8 °F -26.0 °F -11.2 °F 77% 30.09 in 10.0 mi South 13.8 mph - N/A   Scattered Clouds
12:55 AM -4.0 °F -25.2 °F -9.4 °F 78% 30.08 in 10.0 mi South 16.1 mph - N/A   Scattered Clouds
1:15 AM -4.0 °F -25.2 °F -9.4 °F 78% 30.07 in 10.0 mi South 16.1 mph 21.9 mph N/A   Scattered Clouds
1:35 AM -4.0 °F -25.8 °F -7.6 °F 85% 30.04 in 10.0 mi South 17.3 mph - N/A   Mostly Cloudy
1:55 AM -2.2 °F -24.1 °F -7.6 °F 78% 30.01 in 10.0 mi South 18.4 mph - N/A   Scattered Clouds
2:15 AM -0.4 °F -22.8 °F -7.6 °F 72% 29.97 in 7.0 mi SSE 20.7 mph 25.3 mph N/A   Clear
2:35 AM -0.4 °F -22.8 °F -7.6 °F 72% 29.95 in 10.0 mi SSE 20.7 mph 24.2 mph N/A   Scattered Clouds
2:55 AM -0.4 °F -21.2 °F -5.8 °F 78% 29.95 in 10.0 mi South 17.3 mph - N/A   Scattered Clouds
3:15 AM 1.4 °F -18.8 °F -5.8 °F 72% 29.93 in 10.0 mi South 17.3 mph - N/A   Mostly Cloudy
3:35 AM 1.4 °F -19.4 °F -4.0 °F 78% 29.91 in 10.0 mi SSE 18.4 mph - N/A   Overcast
3:55 AM 3.2 °F -18.1 °F -4.0 °F 72% 29.88 in 10.0 mi SSE 20.7 mph 24.2 mph N/A   Mostly Cloudy
4:15 AM 3.2 °F -15.3 °F -2.2 °F 78% 29.86 in 10.0 mi SSE 15.0 mph - N/A   Scattered Clouds
4:35 AM 5.0 °F -15.2 °F -0.4 °F 78% 29.84 in 10.0 mi SSE 19.6 mph 25.3 mph N/A   Mostly Cloudy
4:55 AM 5.0 °F -15.2 °F -0.4 °F 78% 29.82 in 10.0 mi SSE 19.6 mph 25.3 mph N/A   Overcast
5:15 AM 5.0 °F -15.2 °F -0.4 °F 78% 29.79 in 10.0 mi SSE 19.6 mph 25.3 mph N/A   Overcast
5:35 AM 5.0 °F -15.2 °F 1.4 °F 85% 29.78 in 10.0 mi SSE 19.6 mph 26.5 mph N/A   Overcast
5:55 AM 6.8 °F -12.9 °F 1.4 °F 79% 29.75 in 10.0 mi South 19.6 mph 25.3 mph N/A   Overcast
6:15 AM 6.8 °F -12.9 °F 3.2 °F 85% 29.73 in 5.0 mi South 19.6 mph 27.6 mph N/A Snow Light Snow
6:35 AM 6.8 °F -12.4 °F 3.2 °F 85% 29.73 in 5.0 mi South 18.4 mph 26.5 mph N/A Snow Light Snow
6:55 AM 8.6 °F -10.5 °F 3.2 °F 79% 29.70 in 7.0 mi South 19.6 mph 24.2 mph N/A Snow Light Snow
7:15 AM 8.6 °F -11.0 °F 5.0 °F 85% 29.68 in 5.0 mi South 20.7 mph - N/A Snow Light Snow
7:34 AM 8.6 °F -11.4 °F 5.0 °F 85% 29.66 in 7.0 mi South 21.9 mph - N/A Snow Light Snow
7:55 AM 8.6 °F -11.0 °F 5.0 °F 85% 29.63 in 4.0 mi SSE 20.7 mph - N/A Snow Light Snow
8:15 AM 10.4 °F -9.1 °F 5.0 °F 79% 29.61 in 5.0 mi South 21.9 mph - N/A Snow Light Snow
8:34 AM 10.4 °F -8.2 °F 5.0 °F 79% 29.61 in 3.0 mi South 19.6 mph 26.5 mph N/A Snow Light Snow
8:55 AM 10.4 °F -9.9 °F 6.8 °F 85% 29.60 in 3.0 mi South 24.2 mph 28.8 mph N/A Snow Light Snow
9:15 AM 10.4 °F -9.1 °F 6.8 °F 85% 29.58 in 3.0 mi South 21.9 mph 28.8 mph N/A Snow Light Snow
9:34 AM 10.4 °F -7.7 °F 6.8 °F 85% 29.58 in 5.0 mi South 18.4 mph 25.3 mph N/A Snow Light Snow
9:55 AM 10.4 °F -8.2 °F 8.6 °F 92% 29.56 in 3.0 mi South 19.6 mph 26.5 mph N/A Snow Light Snow
10:15 AM 12.2 °F -4.8 °F 8.6 °F 85% 29.55 in 3.0 mi SSE 17.3 mph - N/A Snow Light Snow
10:34 AM 12.2 °F -5.8 °F 8.6 °F 85% 29.54 in 5.0 mi South 19.6 mph 25.3 mph N/A Snow Light Snow
10:55 AM 12.2 °F -5.3 °F 8.6 °F 85% 29.53 in 5.0 mi South 18.4 mph 23.0 mph N/A Snow Light Snow
11:15 AM 14.0 °F -4.7 °F 10.4 °F 86% 29.50 in 5.0 mi South 23.0 mph 26.5 mph N/A Snow Light Snow
11:34 AM 14.0 °F -3.4 °F 10.4 °F 86% 29.49 in 7.0 mi South 19.6 mph 24.2 mph N/A Snow Light Snow
11:55 AM 15.8 °F -1.1 °F 12.2 °F 86% 29.47 in 10.0 mi South 19.6 mph 25.3 mph N/A   Clear
12:15 PM 15.8 °F -1.5 °F 12.2 °F 86% 29.44 in 4.0 mi South 20.7 mph 26.5 mph N/A Snow Light Snow
12:35 PM 15.8 °F -2.7 °F 12.2 °F 86% 29.43 in 4.0 mi South 24.2 mph - N/A Snow Light Snow
12:55 PM 15.8 °F -1.9 °F 12.2 °F 86% 29.40 in 5.0 mi South 21.9 mph 25.3 mph N/A   Clear
1:14 PM 17.6 °F 1.7 °F 12.2 °F 79% 29.38 in 5.0 mi South 18.4 mph 25.3 mph N/A   Clear
1:35 PM 17.6 °F 2.2 °F 14.0 °F 86% 29.39 in 7.0 mi South 17.3 mph 25.3 mph N/A   Clear
1:55 PM 17.6 °F 2.2 °F 14.0 °F 86% 29.36 in 7.0 mi South 17.3 mph 24.2 mph N/A   Clear
2:14 PM 17.6 °F 0.9 °F 14.0 °F 86% 29.35 in 10.0 mi South 20.7 mph 28.8 mph N/A   Scattered Clouds
2:35 PM 17.6 °F 3.2 °F 14.0 °F 86% 29.36 in 10.0 mi South 15.0 mph - N/A   Mostly Cloudy
2:55 PM 17.6 °F 2.2 °F 14.0 °F 86% 29.35 in 10.0 mi South 17.3 mph - N/A   Mostly Cloudy
3:14 PM 19.4 °F 5.5 °F 14.0 °F 80% 29.35 in 10.0 mi SSE 15.0 mph - N/A   Mostly Cloudy
3:35 PM 19.4 °F 5.5 °F 14.0 °F 80% 29.34 in 10.0 mi SSE 15.0 mph - N/A   Scattered Clouds
3:55 PM 19.4 °F 6.0 °F 14.0 °F 80% 29.34 in 10.0 mi South 13.8 mph - N/A   Scattered Clouds
4:15 PM 19.4 °F 6.0 °F 15.8 °F 86% 29.34 in 10.0 mi South 13.8 mph 19.6 mph N/A   Clear
4:35 PM 19.4 °F 5.5 °F 15.8 °F 86% 29.33 in 7.0 mi South 15.0 mph - N/A   Scattered Clouds
4:55 PM 19.4 °F 5.5 °F 15.8 °F 86% 29.32 in 10.0 mi South 15.0 mph - N/A   Scattered Clouds
5:15 PM 19.4 °F 5.5 °F 15.8 °F 86% 29.32 in 10.0 mi South 15.0 mph 21.9 mph N/A   Mostly Cloudy
5:35 PM 19.4 °F 5.5 °F 15.8 °F 86% 29.32 in 10.0 mi South 15.0 mph - N/A   Mostly Cloudy
5:54 PM 19.4 °F 6.6 °F 17.6 °F 93% 29.32 in 10.0 mi South 12.7 mph - N/A   Mostly Cloudy
6:15 PM 19.4 °F 5.5 °F 17.6 °F 93% 29.31 in 7.0 mi South 15.0 mph - N/A   Mostly Cloudy
6:35 PM 19.4 °F 7.9 °F 17.6 °F 93% 29.30 in 7.0 mi South 10.4 mph - N/A   Scattered Clouds
6:55 PM 21.2 °F 8.9 °F 17.6 °F 86% 29.29 in 7.0 mi SSE 12.7 mph - N/A   Clear
7:15 PM 21.2 °F 8.9 °F 17.6 °F 86% 29.28 in 10.0 mi SSE 12.7 mph - N/A   Scattered Clouds
7:35 PM 21.2 °F 10.1 °F 19.4 °F 93% 29.28 in 10.0 mi South 10.4 mph 16.1 mph N/A   Mostly Cloudy
7:55 PM 21.2 °F 9.5 °F 19.4 °F 93% 29.27 in 10.0 mi South 11.5 mph - N/A   Mostly Cloudy
8:15 PM 21.2 °F 10.1 °F 19.4 °F 93% 29.28 in 7.0 mi South 10.4 mph - N/A   Mostly Cloudy
8:35 PM 23.0 °F 11.7 °F 21.2 °F 93% 29.29 in 10.0 mi South 11.5 mph - N/A   Mostly Cloudy
8:55 PM 23.0 °F 11.7 °F 21.2 °F 93% 29.29 in 5.0 mi SSW 11.5 mph - N/A Snow Light Snow
9:15 PM 23.0 °F 12.4 °F 23.0 °F 100% 29.28 in 4.0 mi South 10.4 mph - N/A Snow Light Snow
9:35 PM 26.6 °F 19.1 °F 23.0 °F 86% 29.28 in 10.0 mi SSW 6.9 mph - N/A   Overcast
9:55 PM 26.6 °F 19.1 °F 23.0 °F 86% 29.29 in 10.0 mi SW 6.9 mph - N/A   Overcast
10:15 PM 26.6 °F 21.2 °F 24.8 °F 93% 29.31 in 5.0 mi SW 4.6 mph - N/A   Overcast
10:35 PM 26.6 °F 20.0 °F 24.8 °F 93% 29.33 in 3.0 mi WSW 5.8 mph - 0.01 in   Overcast
10:55 PM 26.6 °F 19.1 °F 26.6 °F 100% 29.33 in 2.5 mi WNW 6.9 mph - 0.01 in   Overcast
11:15 PM 26.6 °F 13.4 °F 26.6 °F 100% 29.32 in 2.0 mi NNW 18.4 mph 24.2 mph N/A   Overcast
11:35 PM 24.8 °F 11.1 °F 23.0 °F 93% 29.35 in 2.5 mi North 18.4 mph 24.2 mph N/A Snow Light Snow
11:55 PM 21.2 °F 4.2 °F 21.2 °F 100% 29.39 in 2.5 mi NNW 25.3 mph 28.8 mph N/A Snow Light Snow